Blytheville Muni Airport, AR

12:11 AM CST on February 21, 2018 (GMT -0600)
Blytheville Municipal

Weather History for KHKA - April, 2013

Change the Weather History Date:

Saturday, April 20, 2013

  Actual Average Record
Temperature  
Mean Temperature 52 °F -  
Max Temperature 64 °F 75 °F 87 °F (2002)
Min Temperature 39 °F 54 °F 35 °F (1983)
Degree Days  
Heating Degree Days 14    
Growing Degree Days 2 (Base 50)    
Moisture  
Dew Point 38 °F    
Average Humidity 61    
Maximum Humidity 89    
Minimum Humidity 36    
Precipitation  
Precipitation 0.00 in - - ()
Sea Level Pressure  
Sea Level Pressure 30.23 in    
Wind  
Wind Speed 4 mph (South)    
Max Wind Speed 7 mph    
Max Gust Speed -    
Visibility 10 miles    
Events      
Averages and records for this station are not official NWS values.
T = Trace of Precipitation, MM = Missing Value Source: NWS Daily Summary

Daily Weather History Graph

Daily Weather History Graph

Search for Another Location

Airport or City:

Trip Planner

Search our weather history database for the weather conditions in past years. The results will help you decide how hot, cold, wet, or windy it might be!

Date:

Astronomy

Apr. 20, 2013 Rise Set
Actual Time 6:19 AM CDT 7:37 PM CDT
Civil Twilight 5:52 AM CDT 8:04 PM CDT
Nautical Twilight 5:20 AM CDT 8:36 PM CDT
Astronomical Twilight 4:47 AM CDT 9:09 PM CDT
Moon 2:30 PM CDT (4/20) 2:58 AM CDT (4/20)
Length of Visible Light 14h 11m
Length of Day
13h 17m
Waxing Gibbous, 71% of the Moon is Illuminated
Apr 20
Waxing Gibbous
Apr 25
Full
May 2
Last Quarter
May 9
New
May 17
First Quarter

Hourly Weather History & Observations

Time (CDT) Temp. Windchill Dew Point Humidity Pressure Visibility Wind Dir Wind Speed Gust Speed Precip Events Conditions
12:53 AM 45.0 °F 43.5 °F 35.1 °F 68% 30.15 in 10.0 mi WSW 3.5 mph - N/A   Clear
1:53 AM 42.1 °F 39.2 °F 36.0 °F 79% 30.15 in 10.0 mi SW 4.6 mph - N/A   Clear
2:53 AM 41.0 °F 38.0 °F 37.0 °F 86% 30.15 in 10.0 mi SW 4.6 mph - N/A   Partly Cloudy
3:53 AM 41.0 °F 37.1 °F 36.0 °F 82% 30.16 in 10.0 mi SSW 5.8 mph - N/A   Clear
4:54 AM 39.9 °F 37.8 °F 37.0 °F 89% 30.17 in 10.0 mi SSW 3.5 mph - N/A   Unknown
5:53 AM 39.9 °F 36.7 °F 37.0 °F 89% 30.19 in 10.0 mi SW 4.6 mph - N/A   Clear
6:53 AM 39.9 °F 37.8 °F 37.0 °F 89% 30.21 in 10.0 mi SSW 3.5 mph - N/A   Clear
7:53 AM 45.0 °F 43.5 °F 41.0 °F 86% 30.23 in 10.0 mi SSW 3.5 mph - N/A   Clear
8:53 AM 52.0 °F - 39.9 °F 63% 30.25 in 10.0 mi Calm Calm - N/A   Clear
9:53 AM 57.0 °F - 30.0 °F 36% 30.26 in 10.0 mi Calm Calm - N/A   Clear
10:53 AM 57.9 °F - 30.9 °F 36% 30.27 in 10.0 mi Calm Calm - N/A   Clear
11:53 AM 60.1 °F - 35.1 °F 39% 30.27 in 10.0 mi Variable 4.6 mph - N/A   Clear
12:53 PM 60.1 °F - 36.0 °F 41% 30.26 in 10.0 mi West 4.6 mph - N/A   Clear
1:53 PM 62.1 °F - 37.0 °F 39% 30.25 in 10.0 mi Calm Calm - N/A   Clear
2:53 PM 62.1 °F - 37.0 °F 39% 30.24 in 10.0 mi SW 3.5 mph - N/A   Clear
3:53 PM 64.0 °F - 37.0 °F 37% 30.22 in 10.0 mi Calm Calm - N/A   Clear
4:53 PM 64.0 °F - 37.9 °F 38% 30.22 in 10.0 mi North 5.8 mph - N/A   Clear
5:53 PM 62.1 °F - 37.9 °F 41% 30.22 in 10.0 mi ENE 6.9 mph - N/A   Clear
6:53 PM 59.0 °F - 39.9 °F 49% 30.22 in 10.0 mi ENE 5.8 mph - N/A   Clear
7:53 PM 55.9 °F - 42.1 °F 60% 30.23 in 10.0 mi ENE 6.9 mph - N/A   Clear
8:53 PM 55.0 °F - 41.0 °F 59% 30.26 in 10.0 mi ENE 4.6 mph - N/A   Clear
9:53 PM 51.1 °F - 42.1 °F 71% 30.27 in 10.0 mi East 4.6 mph - N/A   Clear
10:53 PM 50.0 °F - 41.0 °F 71% 30.28 in 10.0 mi ENE 5.8 mph - N/A   Clear
11:53 PM 48.0 °F - 41.0 °F 77% 30.29 in 10.0 mi East 6.9 mph - N/A   Clear